Weather History for Vinton, IA

Change the Weather History Date:

Sunday, March 17, 2013

  Actual Average Record
Temperature  
Mean Temperature 27 °F -  
Max Temperature 34 °F 44 °F 80 °F (2003)
Min Temperature 20 °F 26 °F 6 °F (1993)
Degree Days  
Heating Degree Days 38    
Moisture  
Dew Point 17 °F    
Average Humidity 66    
Maximum Humidity 77    
Minimum Humidity 50    
Precipitation  
Precipitation 0.00 in - - ()
Sea Level Pressure  
Sea Level Pressure 30.09 in    
Wind  
Wind Speed 13 mph (East)    
Max Wind Speed 21 mph    
Max Gust Speed 28 mph    
Visibility 10 miles    
Events      
Averages and records for this station are not official NWS values.
T = Trace of Precipitation, MM = Missing Value Source: NWS Daily Summary

Daily Weather History Graph

Daily Weather History Graph

Search for Another Location

Airport:

Trip Planner

Search our weather history database for the weather conditions in past years. The results will help you decide how hot, cold, wet, or windy it might be!

Date:

Astronomy

Mar. 17, 2013 Rise Set
Actual Time 7:16 AM CDT 7:17 PM CDT
Civil Twilight 6:48 AM CDT 7:45 PM CDT
Nautical Twilight 6:15 AM CDT 8:17 PM CDT
Astronomical Twilight 5:42 AM CDT 8:51 PM CDT
Moon 10:23 AM CDT (3/17) 12:31 AM CDT (3/17)
Length of Visible Light 12h 56m
Length of Day
12h 01m
Waxing Crescent, 31% of the Moon is Illuminated
Mar 17
Waxing Crescent
Mar 19
First Quarter
Mar 27
Full
Apr 2
Last Quarter
Apr 10
New

Hourly Weather History & Observations

Time (CDT) Temp. Windchill Dew Point Humidity Pressure Visibility Wind Dir Wind Speed Gust Speed Precip Events Conditions
12:15 AM 23.9 °F 13.5 °F 16.5 °F 73% 30.19 in 10.0 mi North 10.4 mph - N/A   Scattered Clouds
12:35 AM 23.9 °F 14.2 °F 16.2 °F 72% 30.19 in 10.0 mi North 9.2 mph - N/A   Scattered Clouds
12:55 AM 22.6 °F 12.6 °F 14.7 °F 72% 30.19 in 10.0 mi North 9.2 mph - N/A   Clear
1:15 AM 22.6 °F 12.6 °F 15.4 °F 74% 30.19 in 10.0 mi North 9.2 mph - N/A   Clear
1:35 AM 22.6 °F 10.7 °F 14.7 °F 72% 30.18 in 10.0 mi North 12.7 mph - N/A   Clear
1:55 AM 22.6 °F 10.7 °F 14.5 °F 71% 30.18 in 10.0 mi North 12.7 mph - N/A   Clear
2:15 AM 22.6 °F 11.9 °F 14.4 °F 71% 30.18 in 10.0 mi North 10.4 mph - N/A   Clear
2:35 AM 22.6 °F 11.3 °F 14.9 °F 72% 30.18 in 10.0 mi North 11.5 mph - N/A   Clear
2:55 AM 22.6 °F 11.3 °F 14.5 °F 71% 30.18 in 10.0 mi North 11.5 mph - N/A   Clear
3:15 AM 22.6 °F 11.3 °F 14.0 °F 69% 30.16 in 10.0 mi North 11.5 mph - N/A   Clear
3:35 AM 21.6 °F 9.9 °F 13.1 °F 70% 30.16 in 10.0 mi NNE 11.5 mph - N/A   Clear
3:55 AM 21.2 °F 7.3 °F 11.8 °F 67% 30.15 in 10.0 mi North 16.1 mph - N/A   Clear
4:15 AM 20.8 °F 8.4 °F 12.2 °F 69% 30.15 in 10.0 mi North 12.7 mph - N/A   Clear
4:35 AM 20.3 °F 7.2 °F 11.8 °F 70% 30.15 in 10.0 mi NNE 13.8 mph 18.4 mph N/A   Clear
4:55 AM 20.3 °F 7.2 °F 12.2 °F 71% 30.14 in 10.0 mi NNE 13.8 mph - N/A   Clear
5:15 AM 20.3 °F 7.2 °F 12.2 °F 71% 30.15 in 10.0 mi NNE 13.8 mph - N/A   Clear
5:35 AM 20.3 °F 8.3 °F 11.7 °F 69% 30.15 in 10.0 mi NE 11.5 mph - N/A   Clear
5:55 AM 20.3 °F 9.0 °F 11.5 °F 69% 30.16 in 10.0 mi NE 10.4 mph - N/A   Clear
6:15 AM 20.3 °F 8.3 °F 10.9 °F 67% 30.17 in 10.0 mi ENE 11.5 mph 17.3 mph N/A   Clear
6:35 AM 20.3 °F 8.3 °F 11.3 °F 68% 30.18 in 10.0 mi ENE 11.5 mph - N/A   Clear
6:55 AM 20.3 °F 9.0 °F 12.2 °F 71% 30.18 in 10.0 mi ENE 10.4 mph - N/A   Clear
7:15 AM 20.3 °F 9.8 °F 13.1 °F 74% 30.18 in 10.0 mi East 9.2 mph - N/A   Clear
7:35 AM 20.3 °F 8.3 °F 13.1 °F 74% 30.18 in 10.0 mi East 11.5 mph - N/A   Clear
7:55 AM 20.8 °F 9.0 °F 12.0 °F 69% 30.19 in 10.0 mi East 11.5 mph - N/A   Clear
8:15 AM 21.7 °F 9.6 °F 12.2 °F 67% 30.19 in 10.0 mi East 12.7 mph - N/A   Clear
8:35 AM 22.6 °F 10.1 °F 11.8 °F 63% 30.19 in 10.0 mi East 13.8 mph - N/A   Clear
8:55 AM 22.6 °F 9.6 °F 10.9 °F 61% 30.20 in 10.0 mi East 15.0 mph - N/A   Clear
9:15 AM 25.2 °F 12.9 °F 12.9 °F 60% 30.19 in 10.0 mi East 15.0 mph - N/A   Clear
9:35 AM 25.2 °F 12.9 °F 11.1 °F 55% 30.20 in 10.0 mi ESE 15.0 mph - N/A   Clear
9:55 AM 27.5 °F 16.3 °F 13.3 °F 55% 30.19 in 10.0 mi ESE 13.8 mph - N/A   Clear
10:15 AM 27.5 °F 16.8 °F 13.5 °F 56% 30.18 in 10.0 mi East 12.7 mph 18.4 mph N/A   Clear
10:35 AM 27.5 °F 15.4 °F 13.1 °F 55% 30.18 in 10.0 mi ESE 16.1 mph - N/A   Clear
10:55 AM 27.5 °F 16.3 °F 12.9 °F 54% 30.17 in 10.0 mi East 13.8 mph - N/A   Clear
11:15 AM 27.5 °F 16.8 °F 12.2 °F 53% 30.17 in 10.0 mi East 12.7 mph - N/A   Clear
11:35 AM 29.7 °F 20.1 °F 13.3 °F 51% 30.16 in 10.0 mi ESE 11.5 mph 16.1 mph N/A   Clear
11:55 AM 30.2 °F 19.8 °F 14.0 °F 51% 30.15 in 10.0 mi ESE 13.8 mph - N/A   Clear
12:15 PM 30.2 °F 20.8 °F 13.6 °F 50% 30.14 in 10.0 mi ESE 11.5 mph - N/A   Clear
12:35 PM 32.0 °F 21.6 °F 16.0 °F 52% 30.13 in 10.0 mi ESE 15.0 mph 18.4 mph N/A   Clear
12:55 PM 32.4 °F 23.0 °F 16.7 °F 53% 30.12 in 10.0 mi ESE 12.7 mph - N/A   Clear
1:15 PM 32.4 °F 23.5 °F 17.4 °F 54% 30.11 in 10.0 mi East 11.5 mph 16.1 mph N/A   Clear
1:35 PM 32.4 °F 23.0 °F 16.7 °F 53% 30.09 in 10.0 mi ESE 12.7 mph 16.1 mph N/A   Clear
1:55 PM 32.7 °F 23.9 °F 17.2 °F 53% 30.08 in 10.0 mi ESE 11.5 mph 18.4 mph N/A   Clear
2:15 PM 33.1 °F 23.0 °F 17.6 °F 53% 30.06 in 10.0 mi ESE 15.0 mph - N/A   Clear
2:35 PM 33.4 °F 23.1 °F 18.3 °F 54% 30.06 in 10.0 mi ESE 16.1 mph 21.9 mph N/A   Clear
2:55 PM 34.3 °F 23.9 °F 19.2 °F 54% 30.05 in 10.0 mi ESE 17.3 mph 20.7 mph N/A   Clear
3:15 PM 34.2 °F 24.4 °F 19.8 °F 56% 30.04 in 10.0 mi ESE 15.0 mph 21.9 mph N/A   Clear
3:35 PM 34.9 °F 25.3 °F 20.5 °F 56% 30.02 in 10.0 mi ESE 15.0 mph 19.6 mph N/A   Scattered Clouds
3:55 PM 33.6 °F 21.9 °F 20.8 °F 59% 30.02 in 10.0 mi ESE 20.7 mph 24.2 mph N/A   Scattered Clouds
4:15 PM 34.9 °F 24.2 °F 21.7 °F 59% 30.01 in 10.0 mi ESE 18.4 mph - N/A   Scattered Clouds
4:35 PM 32.5 °F 20.8 °F 20.5 °F 61% 30.00 in 10.0 mi ESE 19.6 mph 25.3 mph N/A   Mostly Cloudy
4:55 PM 32.4 °F 20.9 °F 21.2 °F 63% 30.00 in 10.0 mi ESE 18.4 mph 27.6 mph N/A   Overcast
5:15 PM 32.4 °F 20.6 °F 21.4 °F 64% 29.99 in 10.0 mi ESE 19.6 mph 23.0 mph N/A   Overcast
5:35 PM 32.4 °F 20.6 °F 21.7 °F 65% 29.99 in 10.0 mi ESE 19.6 mph 25.3 mph N/A   Overcast
5:55 PM 32.4 °F 21.3 °F 22.6 °F 67% 29.98 in 10.0 mi ESE 17.3 mph - N/A   Mostly Cloudy
6:15 PM 32.4 °F 20.3 °F 23.2 °F 69% 29.98 in 10.0 mi ESE 20.7 mph 26.5 mph N/A   Mostly Cloudy
6:35 PM 30.9 °F 20.7 °F 21.9 °F 69% 29.98 in 10.0 mi ESE 13.8 mph 24.2 mph N/A   Mostly Cloudy
6:55 PM 30.2 °F 18.9 °F 21.4 °F 70% 29.98 in 10.0 mi ESE 16.1 mph 19.6 mph N/A   Mostly Cloudy
7:15 PM 30.2 °F 19.8 °F 21.7 °F 71% 29.97 in 10.0 mi ESE 13.8 mph - N/A   Mostly Cloudy
7:35 PM 30.2 °F 19.8 °F 22.5 °F 73% 29.97 in 10.0 mi ESE 13.8 mph - N/A   Overcast
7:55 PM 30.2 °F 18.5 °F 22.6 °F 73% 29.96 in 10.0 mi ESE 17.3 mph 20.7 mph N/A   Overcast
8:15 PM 30.2 °F 18.5 °F 22.8 °F 74% 29.95 in 10.0 mi ESE 17.3 mph - N/A   Mostly Cloudy
8:35 PM 30.2 °F 18.9 °F 22.6 °F 73% 29.95 in 10.0 mi ESE 16.1 mph - N/A   Mostly Cloudy
8:55 PM 30.2 °F 18.9 °F 23.0 °F 75% 29.94 in 10.0 mi ESE 16.1 mph - N/A   Overcast
9:15 PM 30.2 °F 19.8 °F 23.0 °F 75% 29.95 in 10.0 mi ESE 13.8 mph - N/A   Overcast
9:35 PM 30.2 °F 20.2 °F 23.0 °F 75% 29.94 in 10.0 mi ESE 12.7 mph 20.7 mph N/A   Overcast
9:55 PM 30.2 °F 20.2 °F 23.0 °F 75% 29.94 in 10.0 mi ESE 12.7 mph - N/A   Overcast
10:15 PM 30.2 °F 18.9 °F 23.0 °F 75% 29.94 in 10.0 mi ESE 16.1 mph - N/A   Overcast
10:35 PM 30.2 °F 18.9 °F 23.4 °F 76% 29.94 in 10.0 mi SE 16.1 mph - N/A   Overcast
10:55 PM 30.2 °F 20.8 °F 23.2 °F 75% 29.93 in 10.0 mi ESE 11.5 mph - N/A   Overcast
11:15 PM 30.2 °F 21.3 °F 23.7 °F 77% 29.93 in 10.0 mi ESE 10.4 mph 17.3 mph N/A   Overcast
11:35 PM 30.2 °F 20.2 °F 23.5 °F 76% 29.92 in 10.0 mi ESE 12.7 mph - N/A   Mostly Cloudy
11:55 PM 30.2 °F 20.2 °F 23.9 °F 77% 29.90 in 10.0 mi ESE 12.7 mph 18.4 mph N/A   Overcast